Regional Weather Roundup
Issued by NWS

Home | Current Version | Previous Version | Graphics & Text | Print | Product List | Glossary On
Versions: 1 2 3 4 5 6 7 8 9 10 11 12 13 14 15 16 17 18 19 20 21 22 23 24 25 26 27 28 29 30 31 32 33 34 35 36 37 38 39 40 41 42 43 44 45 46 47 48 49 50
000
ASUS43 KFSD 270002
RWRSD

WEATHER ROUNDUP FOR SOUTH DAKOTA
NATIONAL WEATHER SERVICE SIOUX FALLS SD
700 PM CDT THU MAY 26 2016

NOTE: "FAIR" INDICATES FEW OR NO CLOUDS BELOW 12,000 FEET WITH NO
SIGNIFICANT WEATHER AND/OR OBSTRUCTIONS TO VISIBILITY.


SDZ001>005-009-010-012>017-270100-
NORTHWEST AND NORTH CENTRAL SOUTH DAKOTA

CITY           SKY/WX    TMP DP  RH WIND       PRES   REMARKS
BUFFALO          N/A     66  39  37 NW18      29.77S
FAITH            N/A     71  36  27 NW12      29.78F
MOBRIDGE       MOSUNNY   76  44  32 W12       29.70F
$$

SDZ012>016-024>037-041>051-057-063-072>074-270100-
SOUTHWEST AND SOUTH CENTRAL SOUTH DAKOTA

CITY           SKY/WX    TMP DP  RH WIND       PRES   REMARKS
RAPID CTY ARPT CLOUDY    68  42  38 E6        29.82F
PIERRE         SUNNY     74  52  46 N10       29.74R
CUSTER         CLOUDY    58  42  55 E8        29.90S
ELLSWORTH AFB  CLOUDY    66  44  44 E1        29.82F
PHILIP         CLOUDY    71  52  50 NW9       29.76F
PINE RIDGE     CLOUDY    65  47  52 SW7       29.82F
WINNER         FAIR      77  53  43 SE7       29.77S
$$

SDZ004>011-016>023-039-040-270100-
NORTHEAST SOUTH DAKOTA

CITY           SKY/WX    TMP DP  RH WIND       PRES   REMARKS
ABERDEEN       MOSUNNY   77  50  38 W9        29.72S
WATERTOWN      MOSUNNY   75  48  38 CALM      29.80R
BROOKINGS      CLOUDY    74  52  46 S8        29.82R
SISSETON         N/A     77  48  35 W6        29.74R
$$

SDZ017-020-022-023-036>040-048>070-270100-
SOUTHEAST SOUTH DAKOTA

CITY           SKY/WX    TMP DP  RH WIND       PRES   REMARKS
SIOUX FALLS    CLOUDY    71  56  58 E7        29.83R
HURON          SUNNY     74  54  49 SE9       29.78R
MITCHELL       CLOUDY    74  56  53 SE14      29.81R
YANKTON        CLOUDY    72  61  68 NE5       29.80R
$$

ABBREVIATIONS USED IN REMARKS
   TC - TEMPERATURE IN CELSIUS
  WCI - WIND CHILL INDEX
   HX - HEAT INDEX
  VSB - VISIBILITY





USA.gov is the U.S. government's official web portal to all federal, state and local government web resources and services.